Location: 22
(39.7117°N, 89.5929°W)
Time: 19:46:27
(UTC-05:00)

Vanguard 3 - Pass Details

Date: 07 February 2023
Orbit: 508 x 3249 km, 33.4° (Epoch: 30 March)

Event Time Altitude Azimuth Distance (km) Brightness Sun altitude
Rises 16:39:14 0° 221° (SW) 3,239 11.7 7.3°
Reaches altitude 10° 16:41:29 10° 210° (SSW) 2,548 10.8 6.9°
Maximum altitude 16:46:55 33° 148° (SSE) 1,941 9.1 6.0°
Drops below altitude 10° 16:55:40 10° 90° (E) 4,178 10.2 4.4°
Sets 17:00:29 0° 83° (E) 5,679 10.8 3.6°
